Location: Bishausen
(51.6334°N, 9.9631°E)
Time: 13:03:25
(UTC+00:00)

RESURS DK-1 - Pass Details

Date: 23 May 2024
Orbit: 542 x 547 km, 69.9° (Epoch: 12 June)

Event Time Altitude Azimuth Distance (km) Brightness Sun altitude
Rises 02:03:09 0° 325° (NW) 2,723 6.1 -9.1°
Reaches altitude 10° 02:05:22 10° 322° (NW) 1,826 5.1 -8.9°
Maximum altitude 02:09:23 61° 243° (WSW) 626 2.3 -8.5°
Drops below altitude 10° 02:13:23 10° 163° (SSE) 1,816 4.7 -8.1°
Sets 02:15:34 0° 159° (SSE) 2,705 5.6 -7.9°
